{"data":{"norad_id":41900,"epoch":"2026-09-19T22:30:01.092096Z","epoch_age_seconds":96966,"freshness":"FRESH","line1":"1 41900U 16081C   26262.93751264  .00000325  00000+0  78281-4 0  9994","line2":"2 41900  98.5566 260.3652 0024296  30.4200 329.8403 14.59868893518094","mean_motion":14.59868893,"eccentricity":0.0024296,"inclination_deg":98.5566,"raan_deg":260.3652,"arg_perigee_deg":30.42,"mean_anomaly_deg":329.8403,"bstar":7.8281e-5,"rev_number":51809,"period_min":98.638994700465,"perigee_km":676.41586711307,"apogee_km":710.77883868067,"semimajor_km":7071.7343528969,"source":"CELESTRAK","updated_at":"2026-09-20T09:00:14.167487Z"}}